User: anonymous   Login
Location: Unspecified
(0.0000°N, 0.0000°E)
Time: 05:20:54
(UTC+02:00)
Language:

ARIANE 5 R/B - Orbit

View from above orbital plane
View from above orbital plane
View from above satellite
View from above satellite

Ground track
Ground track

The orbit data is extracted from the following two-line orbital elements,

1 28787U 05028B   17117.34947644 -.00000133 +00000-0 +22256-3 0  9993
2 28787 007.1383 055.5842 7170702 162.8525 006.1587 02.26564295096933
Epoch (UTC): 27 April 2017 08:23:14
Eccentricity: 0.7170702
inclination: 7.1383°
perigee height: 550 km
apogee height: 35668 km
right ascension of ascending node: 55.5842°
argument of perigee: 162.8525°
revolutions per day: 2.26564295
mean anomaly at epoch: 6.1587°
orbit number at epoch: 9693

The dashed part of the orbit path shows where the satellite is in the earth's shadow,  

DLR